| time (UTC) | temp F | wind direction | speed knots | gust knots | rain 1hr in | rain 24hr in | rain mn in | humidity % | barometer mb |
| 20260509024532 | 55 | 0 | 0.0 | 0.0 | 0.00 | 0.00 | 0.00 | 69 | 1014.2 |
| 20260509024015 | 55 | 0 | 0.0 | 0.0 | 0.00 | 0.00 | 0.00 | 68 | 1014.3 |
| 20260509023515 | 55 | 0 | 0.0 | 0.0 | 0.00 | 0.00 | 0.00 | 67 | 1014.4 |
| 20260509023032 | 55 | 0 | 0.0 | 0.0 | 0.00 | 0.00 | 0.00 | 68 | 1014.3 |
| 20260509022514 | 55 | 0 | 0.0 | 0.0 | 0.00 | 0.00 | 0.00 | 67 | 1014.2 |
| 20260509022017 | 56 | 0 | 0.0 | 0.0 | 0.00 | 0.00 | 0.00 | 67 | 1014.2 |
| 20260509021537 | 56 | 0 | 0.0 | 0.0 | 0.00 | 0.00 | 0.00 | 66 | 1014.2 |
| 20260509021014 | 56 | 0 | 0.0 | 0.0 | 0.00 | 0.00 | 0.00 | 64 | 1014.2 |
| 20260509020515 | 56 | 0 | 0.0 | 0.0 | 0.00 | 0.00 | 0.00 | 64 | 1014.2 |
| 20260509020034 | 57 | 0 | 0.0 | 0.0 | 0.00 | 0.00 | 0.00 | 64 | 1014.1 |
| 20260509015518 | 57 | 0 | 0.0 | 0.0 | 0.00 | 0.00 | 0.00 | 63 | 1014.1 |
| 20260509015014 | 57 | 0 | 0.0 | 0.0 | 0.00 | 0.00 | 0.00 | 63 | 1014.0 |
| 20260509014532 | 57 | 0 | 0.0 | 0.0 | 0.00 | 0.00 | 0.00 | 63 | 1014.0 |
| 20260509014015 | 57 | 0 | 0.0 | 0.0 | 0.00 | 0.00 | 0.00 | 64 | 1014.0 |
| 20260509013515 | 57 | 0 | 0.0 | 0.0 | 0.00 | 0.00 | 0.00 | 64 | 1013.8 |
| 20260509013035 | 57 | 0 | 0.0 | 0.9 | 0.00 | 0.00 | 0.00 | 62 | 1013.7 |
| 20260509012515 | 57 | 0 | 0.0 | 0.9 | 0.00 | 0.00 | 0.00 | 63 | 1013.7 |
| 20260509012017 | 58 | 238 | 0.0 | 0.9 | 0.00 | 0.00 | 0.00 | 64 | 1013.7 |
| 20260509011534 | 58 | 0 | 0.0 | 0.0 | 0.00 | 0.00 | 0.00 | 62 | 1013.8 |
| 20260509011016 | 58 | 0 | 0.0 | 0.0 | 0.00 | 0.00 | 0.00 | 62 | 1013.8 |
| 20260509010516 | 58 | 0 | 0.0 | 0.0 | 0.00 | 0.00 | 0.00 | 61 | 1013.8 |
| 20260509010036 | 58 | 0 | 0.0 | 0.0 | 0.00 | 0.00 | 0.00 | 60 | 1013.8 |
| 20260509005516 | 59 | 0 | 0.0 | 0.0 | 0.00 | 0.00 | 0.00 | 60 | 1013.9 |
| 20260509005014 | 59 | 0 | 0.0 | 0.0 | 0.00 | 0.00 | 0.00 | 59 | 1013.8 |
| 20260509004535 | 59 | 0 | 0.0 | 0.0 | 0.00 | 0.00 | 0.00 | 60 | 1013.8 |
| 20260509004015 | 60 | 0 | 0.0 | 0.0 | 0.00 | 0.00 | 0.00 | 59 | 1013.8 |
| 20260509003518 | 61 | 0 | 0.0 | 0.0 | 0.00 | 0.00 | 0.00 | 58 | 1013.7 |
| 20260509003036 | 62 | 0 | 0.0 | 0.0 | 0.00 | 0.00 | 0.00 | 59 | 1013.7 |
| 20260509002516 | 64 | 240 | 0.0 | 0.0 | 0.00 | 0.00 | 0.00 | 51 | 1013.8 |
| 20260509002016 | 65 | 0 | 0.0 | 0.0 | 0.00 | 0.00 | 0.00 | 50 | 1013.6 |
| 20260509001531 | 67 | 0 | 0.0 | 0.0 | 0.00 | 0.00 | 0.00 | 50 | 1013.7 |
| 20260509001015 | 68 | 0 | 0.0 | 0.9 | 0.00 | 0.00 | 0.00 | 48 | 1013.6 |
| 20260509000516 | 68 | 0 | 0.0 | 1.7 | 0.00 | 0.00 | 0.00 | 47 | 1013.6 |
| 20260509000034 | 68 | 0 | 0.0 | 7.0 | 0.00 | 0.00 | 0.00 | 47 | 1013.8 |
| 20260508235516 | 68 | 0 | 0.9 | 7.0 | 0.00 | 0.00 | 0.00 | 45 | 1013.7 |
| 20260508235015 | 69 | 246 | 2.6 | 7.0 | 0.00 | 0.00 | 0.00 | 42 | 1013.7 |
| 20260508234532 | 70 | 228 | 1.7 | 3.5 | 0.00 | 0.00 | 0.00 | 43 | 1013.7 |
| 20260508234016 | 70 | 218 | 0.9 | 3.5 | 0.00 | 0.00 | 0.00 | 42 | 1013.7 |
| 20260508233518 | 70 | 272 | 0.9 | 3.5 | 0.00 | 0.00 | 0.00 | 43 | 1013.8 |
| 20260508233036 | 70 | 255 | 1.7 | 6.1 | 0.00 | 0.00 | 0.00 | 42 | 1013.8 |
| 20260508232516 | 69 | 269 | 0.9 | 6.1 | 0.00 | 0.00 | 0.00 | 45 | 1013.8 |
| 20260508232015 | 69 | 243 | 2.6 | 6.1 | 0.00 | 0.00 | 0.00 | 44 | 1013.8 |
| 20260508231532 | 69 | 282 | 3.5 | 6.1 | 0.00 | 0.00 | 0.00 | 41 | 1013.7 |
| 20260508231017 | 70 | 259 | 2.6 | 5.2 | 0.00 | 0.00 | 0.00 | 45 | 1013.6 |
| 20260508230518 | 69 | 283 | 2.6 | 7.0 | 0.00 | 0.00 | 0.00 | 48 | 1013.6 |
| 20260508230033 | 69 | 262 | 3.5 | 7.0 | 0.00 | 0.00 | 0.00 | 48 | 1013.7 |
| 20260508225516 | 69 | 293 | 4.3 | 7.0 | 0.00 | 0.00 | 0.00 | 46 | 1013.7 |
| 20260508225019 | 69 | 269 | 3.5 | 6.1 | 0.00 | 0.00 | 0.00 | 48 | 1013.8 |
| 20260508224545 | 70 | 310 | 1.7 | 5.2 | 0.00 | 0.00 | 0.00 | 44 | 1013.8 |
| 20260508224020 | 70 | 304 | 2.6 | 7.0 | 0.00 | 0.00 | 0.00 | 50 | 1014.0 |
| 20260508223517 | 69 | 259 | 4.3 | 7.0 | 0.00 | 0.00 | 0.00 | 44 | 1014.0 |
| 20260508223034 | 70 | 292 | 1.7 | 6.1 | 0.00 | 0.00 | 0.00 | 45 | 1014.0 |
| 20260508222517 | 70 | 250 | 2.6 | 7.0 | 0.00 | 0.00 | 0.00 | 43 | 1014.0 |
| 20260508222017 | 70 | 250 | 1.7 | 7.0 | 0.00 | 0.00 | 0.00 | 45 | 1014.0 |
| 20260508221534 | 70 | 264 | 5.2 | 7.8 | 0.00 | 0.00 | 0.00 | 44 | 1014.0 |
| 20260508221016 | 70 | 268 | 4.3 | 7.8 | 0.00 | 0.00 | 0.00 | 43 | 1014.0 |
| 20260508220513 | 70 | 299 | 3.5 | 7.0 | 0.00 | 0.00 | 0.00 | 42 | 1014.0 |
| 20260508220039 | 71 | 271 | 4.3 | 7.0 | 0.00 | 0.00 | 0.00 | 43 | 1013.9 |
| 20260508215519 | 71 | 218 | 2.6 | 7.0 | 0.00 | 0.00 | 0.00 | 44 | 1013.9 |
| 20260508215017 | 70 | 153 | 4.3 | 7.0 | 0.00 | 0.00 | 0.00 | 42 | 1014.1 |
| 20260508214539 | 70 | 301 | 4.3 | 7.0 | 0.00 | 0.00 | 0.00 | 41 | 1014.0 |
| 20260508214017 | 70 | 250 | 3.5 | 7.8 | 0.00 | 0.00 | 0.00 | 43 | 1014.1 |
| 20260508213513 | 70 | 250 | 3.5 | 9.6 | 0.00 | 0.00 | 0.00 | 40 | 1014.0 |
| 20260508213032 | 70 | 264 | 2.6 | 9.6 | 0.00 | 0.00 | 0.00 | 47 | 1014.1 |
| 20260508212516 | 71 | 298 | 5.2 | 9.6 | 0.00 | 0.00 | 0.00 | 42 | 1013.9 |
| 20260508212014 | 72 | 43 | 1.7 | 5.2 | 0.00 | 0.00 | 0.00 | 41 | 1013.9 |
| 20260508211534 | 71 | 0 | 0.9 | 6.1 | 0.00 | 0.00 | 0.00 | 41 | 1014.0 |
| 20260508211017 | 71 | 300 | 1.7 | 6.1 | 0.00 | 0.00 | 0.00 | 40 | 1013.8 |
| 20260508210516 | 72 | 298 | 1.7 | 6.1 | 0.00 | 0.00 | 0.00 | 43 | 1013.8 |
| 20260508210037 | 72 | 349 | 0.0 | 6.1 | 0.00 | 0.00 | 0.00 | 41 | 1013.8 |
| 20260508205515 | 71 | 0 | 1.7 | 6.1 | 0.00 | 0.00 | 0.00 | 41 | 1013.9 |
| 20260508205015 | 71 | 249 | 0.9 | 5.2 | 0.00 | 0.00 | 0.00 | 46 | 1014.1 |
| 20260508204538 | 71 | 234 | 2.6 | 5.2 | 0.00 | 0.00 | 0.00 | 43 | 1014.0 |
| 20260508204014 | 71 | 354 | 0.0 | 1.7 | 0.00 | 0.00 | 0.00 | 45 | 1014.0 |
| 20260508203516 | 69 | 25 | 0.0 | 7.0 | 0.00 | 0.00 | 0.00 | 47 | 1014.0 |
| 20260508203036 | 69 | 341 | 1.7 | 7.0 | 0.00 | 0.00 | 0.00 | 44 | 1014.1 |
| 20260508202516 | 70 | 285 | 2.6 | 5.2 | 0.00 | 0.00 | 0.00 | 43 | 1014.1 |
| 20260508202014 | 69 | 0 | 0.0 | 5.2 | 0.00 | 0.00 | 0.00 | 43 | 1014.1 |
| 20260508201534 | 69 | 330 | 2.6 | 6.1 | 0.00 | 0.00 | 0.00 | 43 | 1014.3 |
| 20260508201016 | 69 | 264 | 1.7 | 8.7 | 0.00 | 0.00 | 0.00 | 44 | 1014.3 |
| 20260508200516 | 69 | 293 | 4.3 | 8.7 | 0.00 | 0.00 | 0.00 | 45 | 1014.5 |
| 20260508200034 | 69 | 257 | 3.5 | 7.0 | 0.00 | 0.00 | 0.00 | 45 | 1014.5 |
| 20260508195515 | 68 | 180 | 2.6 | 8.7 | 0.00 | 0.00 | 0.00 | 46 | 1014.7 |
| 20260508195016 | 69 | 310 | 4.3 | 8.7 | 0.00 | 0.00 | 0.00 | 48 | 1015.0 |
| 20260508194534 | 69 | 313 | 3.5 | 7.0 | 0.00 | 0.00 | 0.00 | 49 | 1015.2 |
| 20260508194016 | 69 | 315 | 1.7 | 7.0 | 0.00 | 0.00 | 0.00 | 47 | 1015.3 |
| 20260508193516 | 69 | 259 | 3.5 | 7.8 | 0.00 | 0.00 | 0.00 | 44 | 1015.5 |
| 20260508193035 | 68 | 139 | 1.7 | 7.8 | 0.00 | 0.00 | 0.00 | 51 | 1015.5 |
| 20260508192515 | 68 | 314 | 2.6 | 7.8 | 0.00 | 0.00 | 0.00 | 45 | 1015.6 |
| 20260508192018 | 69 | 281 | 4.3 | 7.8 | 0.00 | 0.00 | 0.00 | 48 | 1015.6 |
| 20260508191540 | 69 | 314 | 2.6 | 7.8 | 0.00 | 0.00 | 0.00 | 43 | 1015.8 |
| 20260508191015 | 68 | 238 | 2.6 | 7.8 | 0.00 | 0.00 | 0.00 | 48 | 1015.8 |
| 20260508190516 | 69 | 264 | 5.2 | 7.8 | 0.00 | 0.00 | 0.00 | 45 | 1015.8 |
| 20260508190035 | 69 | 234 | 0.9 | 7.0 | 0.00 | 0.00 | 0.00 | 45 | 1015.9 |
| 20260508185515 | 69 | 287 | 2.6 | 7.0 | 0.00 | 0.00 | 0.00 | 40 | 1015.9 |
| 20260508185017 | 70 | 302 | 0.9 | 5.2 | 0.00 | 0.00 | 0.00 | 43 | 1016.0 |
| 20260508184538 | 70 | 221 | 1.7 | 5.2 | 0.00 | 0.00 | 0.00 | 45 | 1016.1 |
| 20260508184015 | 69 | 134 | 0.9 | 3.5 | 0.00 | 0.00 | 0.00 | 40 | 1016.3 |
| 20260508183515 | 69 | 0 | 0.9 | 3.5 | 0.00 | 0.00 | 0.00 | 41 | 1016.3 |
| 20260508183036 | 69 | 349 | 0.9 | 3.5 | 0.00 | 0.00 | 0.00 | 42 | 1016.3 |
| 20260508182516 | 69 | 206 | 0.0 | 3.5 | 0.00 | 0.00 | 0.00 | 44 | 1016.5 |
| 20260508182017 | 69 | 342 | 0.0 | 3.5 | 0.00 | 0.00 | 0.00 | 40 | 1016.5 |
| 20260508181544 | 69 | 76 | 0.9 | 3.5 | 0.00 | 0.00 | 0.00 | 43 | 1016.6 |
| 20260508181015 | 68 | 131 | 0.9 | 7.0 | 0.00 | 0.00 | 0.00 | 44 | 1016.5 |
| 20260508180516 | 68 | 94 | 0.9 | 7.0 | 0.00 | 0.00 | 0.00 | 40 | 1016.5 |
| 20260508180032 | 68 | 131 | 1.7 | 7.0 | 0.00 | 0.00 | 0.00 | 40 | 1016.5 |
| 20260508175517 | 68 | 221 | 1.7 | 4.3 | 0.00 | 0.00 | 0.00 | 44 | 1016.6 |
| 20260508175019 | 68 | 236 | 1.7 | 4.3 | 0.00 | 0.00 | 0.00 | 42 | 1016.6 |
| 20260508174538 | 67 | 0 | 0.0 | 2.6 | 0.00 | 0.00 | 0.00 | 42 | 1016.6 |
| 20260508174015 | 67 | 334 | 0.9 | 2.6 | 0.00 | 0.00 | 0.00 | 39 | 1016.7 |
| 20260508173516 | 66 | 160 | 0.9 | 5.2 | 0.00 | 0.00 | 0.00 | 40 | 1017.0 |
| 20260508173034 | 66 | 342 | 0.9 | 5.2 | 0.00 | 0.00 | 0.00 | 43 | 1016.9 |
| 20260508172518 | 66 | 328 | 2.6 | 6.1 | 0.00 | 0.00 | 0.00 | 38 | 1016.8 |
| 20260508172015 | 66 | 231 | 2.6 | 7.8 | 0.00 | 0.00 | 0.00 | 46 | 1017.1 |
| 20260508171541 | 66 | 226 | 2.6 | 7.8 | 0.00 | 0.00 | 0.00 | 42 | 1017.2 |
| 20260508171014 | 66 | 282 | 2.6 | 7.0 | 0.00 | 0.00 | 0.00 | 40 | 1017.1 |
| 20260508170514 | 66 | 236 | 2.6 | 5.2 | 0.00 | 0.00 | 0.00 | 45 | 1017.1 |
| 20260508170033 | 66 | 213 | 0.9 | 5.2 | 0.00 | 0.00 | 0.00 | 47 | 1017.3 |
| 20260508165517 | 67 | 281 | 2.6 | 5.2 | 0.00 | 0.01 | 0.00 | 43 | 1017.4 |
| 20260508165017 | 67 | 213 | 0.9 | 5.2 | 0.00 | 0.01 | 0.00 | 45 | 1017.6 |
| 20260508164532 | 67 | 127 | 0.9 | 5.2 | 0.00 | 0.01 | 0.00 | 48 | 1017.7 |
| 20260508164017 | 67 | 0 | 0.9 | 5.2 | 0.00 | 0.01 | 0.00 | 44 | 1017.9 |
| 20260508163515 | 66 | 182 | 0.9 | 5.2 | 0.00 | 0.01 | 0.00 | 45 | 1017.9 |
| 20260508163043 | 65 | 68 | 0.0 | 5.2 | 0.00 | 0.01 | 0.00 | 45 | 1017.9 |
| 20260508162521 | 65 | 191 | 1.7 | 5.2 | 0.00 | 0.01 | 0.00 | 46 | 1018.1 |
| 20260508162020 | 65 | 216 | 1.7 | 4.3 | 0.00 | 0.01 | 0.00 | 48 | 1018.0 |
| 20260508161549 | 64 | 184 | 2.6 | 4.3 | 0.00 | 0.01 | 0.00 | 47 | 1018.1 |
| 20260508161016 | 64 | 0 | 0.9 | 4.3 | 0.00 | 0.01 | 0.00 | 46 | 1018.1 |
| 20260508160515 | 64 | 0 | 0.0 | 4.3 | 0.00 | 0.01 | 0.00 | 47 | 1018.2 |
| 20260508160034 | 64 | 55 | 2.6 | 7.0 | 0.00 | 0.01 | 0.00 | 47 | 1018.2 |
| 20260508155515 | 64 | 0 | 1.7 | 7.0 | 0.00 | 0.01 | 0.00 | 51 | 1018.2 |
| 20260508155016 | 64 | 0 | 0.9 | 4.3 | 0.00 | 0.01 | 0.00 | 47 | 1018.3 |
| 20260508154534 | 64 | 74 | 0.0 | 4.3 | 0.00 | 0.01 | 0.00 | 53 | 1018.4 |
| 20260508154020 | 64 | 122 | 0.0 | 2.6 | 0.00 | 0.01 | 0.00 | 49 | 1018.4 |
| 20260508153515 | 63 | 179 | 0.0 | 4.3 | 0.00 | 0.01 | 0.00 | 49 | 1018.5 |
| 20260508153052 | 63 | 89 | 0.9 | 5.2 | 0.00 | 0.01 | 0.00 | 50 | 1018.6 |
| 20260508152516 | 63 | 80 | 1.7 | 5.2 | 0.00 | 0.01 | 0.00 | 54 | 1018.7 |
| 20260508152018 | 63 | 125 | 2.6 | 4.3 | 0.00 | 0.01 | 0.00 | 47 | 1018.8 |
| 20260508151533 | 62 | 169 | 0.0 | 4.3 | 0.00 | 0.01 | 0.00 | 48 | 1018.8 |
| 20260508151019 | 62 | 68 | 0.9 | 4.3 | 0.00 | 0.01 | 0.00 | 50 | 1018.8 |
| 20260508150518 | 61 | 124 | 0.9 | 4.3 | 0.00 | 0.01 | 0.00 | 49 | 1018.8 |
| 20260508150032 | 61 | 0 | 0.9 | 5.2 | 0.00 | 0.01 | 0.00 | 55 | 1018.8 |
| 20260508145515 | 61 | 15 | 1.7 | 5.2 | 0.00 | 0.03 | 0.00 | 58 | 1018.8 |
| 20260508145015 | 61 | 0 | 1.7 | 5.2 | 0.00 | 0.03 | 0.00 | 51 | 1018.8 |
| 20260508144532 | 61 | 20 | 0.9 | 2.6 | 0.00 | 0.03 | 0.00 | 57 | 1018.7 |
| 20260508144015 | 61 | 148 | 0.9 | 5.2 | 0.00 | 0.03 | 0.00 | 59 | 1018.8 |
| 20260508143516 | 61 | 235 | 1.7 | 5.2 | 0.00 | 0.03 | 0.00 | 56 | 1018.8 |
| 20260508143056 | 60 | 169 | 0.0 | 4.3 | 0.00 | 0.03 | 0.00 | 66 | 1018.9 |
| 20260508142515 | 60 | 239 | 1.7 | 5.2 | 0.00 | 0.03 | 0.00 | 68 | 1018.9 |
| 20260508142013 | 61 | 202 | 1.7 | 5.2 | 0.00 | 0.03 | 0.00 | 70 | 1019.0 |
| 20260508141537 | 61 | 0 | 0.0 | 1.7 | 0.00 | 0.03 | 0.00 | 74 | 1019.0 |
| 20260508141015 | 60 | 0 | 0.0 | 1.7 | 0.00 | 0.03 | 0.00 | 74 | 1019.1 |
| 20260508140513 | 59 | 221 | 0.0 | 1.7 | 0.00 | 0.03 | 0.00 | 77 | 1019.0 |
| 20260508140035 | 59 | 165 | 0.0 | 1.7 | 0.00 | 0.03 | 0.00 | 79 | 1019.1 |
| 20260508135514 | 58 | 120 | 0.0 | 0.9 | 0.00 | 0.04 | 0.00 | 82 | 1019.1 |
| 20260508135017 | 58 | 146 | 0.0 | 0.9 | 0.00 | 0.04 | 0.00 | 85 | 1019.0 |
| 20260508134537 | 57 | 0 | 0.0 | 0.9 | 0.00 | 0.04 | 0.00 | 86 | 1019.1 |
| 20260508134015 | 57 | 330 | 0.0 | 0.9 | 0.00 | 0.04 | 0.00 | 84 | 1019.1 |
| 20260508133516 | 57 | 0 | 0.0 | 0.9 | 0.00 | 0.04 | 0.00 | 87 | 1019.1 |
| 20260508133032 | 56 | 0 | 0.0 | 0.9 | 0.00 | 0.04 | 0.00 | 90 | 1019.0 |
| 20260508132515 | 55 | 0 | 0.0 | 0.9 | 0.00 | 0.04 | 0.00 | 90 | 1019.0 |
| 20260508132016 | 54 | 0 | 0.0 | 0.9 | 0.00 | 0.04 | 0.00 | 90 | 1019.0 |
| 20260508131537 | 54 | 0 | 0.0 | 0.9 | 0.00 | 0.04 | 0.00 | 90 | 1018.9 |
| 20260508131015 | 53 | 0 | 0.0 | 0.9 | 0.00 | 0.04 | 0.00 | 90 | 1018.9 |
| 20260508130515 | 53 | 0 | 0.0 | 0.9 | 0.00 | 0.04 | 0.00 | 90 | 1018.9 |
| 20260508130033 | 53 | 0 | 0.0 | 0.9 | 0.00 | 0.04 | 0.00 | 89 | 1018.9 |
| 20260508125515 | 53 | 0 | 0.0 | 0.9 | 0.00 | 0.05 | 0.00 | 89 | 1018.9 |
| 20260508125017 | 52 | 0 | 0.0 | 0.0 | 0.00 | 0.05 | 0.00 | 88 | 1018.8 |
| 20260508124536 | 52 | 0 | 0.0 | 0.0 | 0.00 | 0.05 | 0.00 | 87 | 1018.9 |
| 20260508124015 | 53 | 0 | 0.0 | 0.9 | 0.00 | 0.05 | 0.00 | 87 | 1018.9 |
| 20260508123517 | 53 | 0 | 0.0 | 0.9 | 0.00 | 0.05 | 0.00 | 87 | 1018.9 |
| 20260508123034 | 53 | 0 | 0.0 | 0.9 | 0.00 | 0.05 | 0.00 | 86 | 1018.9 |
| 20260508122516 | 53 | 252 | 0.0 | 0.9 | 0.00 | 0.05 | 0.00 | 85 | 1018.9 |
| 20260508122015 | 53 | 0 | 0.0 | 0.9 | 0.00 | 0.05 | 0.00 | 85 | 1018.8 |
| 20260508121533 | 53 | 0 | 0.0 | 0.9 | 0.00 | 0.05 | 0.00 | 85 | 1018.8 |
| 20260508121016 | 53 | 0 | 0.0 | 0.9 | 0.00 | 0.05 | 0.00 | 86 | 1018.7 |
| 20260508120516 | 52 | 0 | 0.0 | 0.0 | 0.00 | 0.05 | 0.00 | 85 | 1018.6 |
| 20260508120033 | 52 | 0 | 0.0 | 0.0 | 0.00 | 0.05 | 0.00 | 85 | 1018.5 |
| 20260508115516 | 52 | 0 | 0.0 | 0.0 | 0.00 | 0.05 | 0.00 | 86 | 1018.4 |
| 20260508115015 | 52 | 0 | 0.0 | 0.0 | 0.00 | 0.05 | 0.00 | 89 | 1018.3 |
| 20260508114536 | 51 | 0 | 0.0 | 0.0 | 0.00 | 0.05 | 0.00 | 92 | 1018.2 |
| 20260508114015 | 50 | 0 | 0.0 | 0.0 | 0.00 | 0.05 | 0.00 | 93 | 1018.2 |
| 20260508113517 | 49 | 0 | 0.0 | 0.9 | 0.00 | 0.05 | 0.00 | 93 | 1018.0 |
| 20260508113034 | 49 | 0 | 0.0 | 0.9 | 0.00 | 0.05 | 0.00 | 93 | 1017.9 |
| 20260508112513 | 49 | 0 | 0.0 | 0.9 | 0.00 | 0.05 | 0.00 | 95 | 1018.0 |
| 20260508112016 | 48 | 0 | 0.0 | 0.0 | 0.00 | 0.05 | 0.00 | 95 | 1017.9 |
| 20260508111536 | 47 | 0 | 0.0 | 0.0 | 0.00 | 0.05 | 0.00 | 95 | 1017.7 |
| 20260508111015 | 46 | 0 | 0.0 | 0.0 | 0.00 | 0.05 | 0.00 | 95 | 1017.7 |
| 20260508110514 | 45 | 0 | 0.0 | 0.9 | 0.00 | 0.05 | 0.00 | 95 | 1017.7 |
| 20260508110035 | 45 | 0 | 0.0 | 0.9 | 0.00 | 0.05 | 0.00 | 95 | 1017.6 |
| 20260508105515 | 44 | 0 | 0.0 | 0.0 | 0.00 | 0.05 | 0.00 | 95 | 1017.5 |
| 20260508105015 | 44 | 0 | 0.0 | 0.9 | 0.00 | 0.05 | 0.00 | 94 | 1017.6 |
| 20260508104532 | 44 | 0 | 0.0 | 0.9 | 0.00 | 0.05 | 0.00 | 94 | 1017.5 |
| 20260508104015 | 44 | 0 | 0.0 | 0.9 | 0.00 | 0.05 | 0.00 | 94 | 1017.5 |
| 20260508103515 | 44 | 0 | 0.0 | 0.9 | 0.00 | 0.05 | 0.00 | 93 | 1017.4 |
| 20260508103042 | 44 | 51 | 0.0 | 0.9 | 0.00 | 0.05 | 0.00 | 93 | 1017.3 |
| 20260508102515 | 43 | 0 | 0.0 | 0.9 | 0.00 | 0.05 | 0.00 | 93 | 1017.4 |
| 20260508102017 | 43 | 39 | 0.0 | 0.9 | 0.00 | 0.05 | 0.00 | 92 | 1017.3 |
| 20260508101534 | 43 | 0 | 0.0 | 0.0 | 0.00 | 0.05 | 0.00 | 92 | 1017.3 |
| 20260508101014 | 43 | 0 | 0.0 | 0.0 | 0.00 | 0.05 | 0.00 | 92 | 1017.4 |
| 20260508100516 | 43 | 0 | 0.0 | 0.0 | 0.00 | 0.05 | 0.00 | 91 | 1017.4 |
| 20260508100048 | 43 | 0 | 0.0 | 0.0 | 0.00 | 0.05 | 0.00 | 91 | 1017.3 |
| 20260508095518 | 43 | 0 | 0.0 | 0.0 | 0.00 | 0.06 | 0.00 | 91 | 1017.2 |
| 20260508095016 | 43 | 0 | 0.0 | 0.0 | 0.00 | 0.06 | 0.00 | 91 | 1017.2 |
| 20260508094538 | 43 | 0 | 0.0 | 0.0 | 0.00 | 0.06 | 0.00 | 91 | 1017.3 |
| 20260508094015 | 43 | 0 | 0.0 | 0.0 | 0.00 | 0.06 | 0.00 | 92 | 1017.2 |
| 20260508093516 | 43 | 0 | 0.0 | 0.0 | 0.00 | 0.06 | 0.00 | 92 | 1017.1 |
| 20260508093037 | 43 | 0 | 0.0 | 0.0 | 0.00 | 0.06 | 0.00 | 92 | 1017.1 |
| 20260508092515 | 43 | 0 | 0.0 | 0.0 | 0.00 | 0.06 | 0.00 | 93 | 1017.1 |
| 20260508092015 | 43 | 0 | 0.0 | 0.0 | 0.00 | 0.06 | 0.00 | 93 | 1016.9 |
| 20260508091549 | 43 | 0 | 0.0 | 0.0 | 0.00 | 0.06 | 0.00 | 92 | 1017.0 |
| 20260508091019 | 44 | 0 | 0.0 | 0.0 | 0.00 | 0.06 | 0.00 | 93 | 1017.0 |
| 20260508090515 | 44 | 0 | 0.0 | 0.0 | 0.00 | 0.06 | 0.00 | 93 | 1017.0 |
| 20260508090040 | 44 | 0 | 0.0 | 0.0 | 0.00 | 0.06 | 0.00 | 93 | 1017.0 |
| 20260508085515 | 44 | 0 | 0.0 | 0.0 | 0.00 | 0.08 | 0.00 | 93 | 1017.0 |
| 20260508085014 | 44 | 0 | 0.0 | 0.0 | 0.00 | 0.08 | 0.00 | 93 | 1016.9 |
| 20260508084535 | 44 | 0 | 0.0 | 0.0 | 0.00 | 0.08 | 0.00 | 93 | 1016.8 |
| 20260508084015 | 44 | 0 | 0.0 | 0.0 | 0.00 | 0.08 | 0.00 | 93 | 1016.8 |
| 20260508083518 | 44 | 0 | 0.0 | 0.0 | 0.00 | 0.08 | 0.00 | 92 | 1016.9 |
| 20260508083037 | 44 | 0 | 0.0 | 0.9 | 0.00 | 0.08 | 0.00 | 92 | 1016.8 |
| 20260508082515 | 45 | 0 | 0.0 | 0.9 | 0.00 | 0.08 | 0.00 | 93 | 1016.8 |
| 20260508082016 | 44 | 79 | 0.0 | 0.9 | 0.00 | 0.08 | 0.00 | 93 | 1016.8 |
| 20260508081538 | 44 | 0 | 0.0 | 0.9 | 0.00 | 0.08 | 0.00 | 93 | 1016.7 |
| 20260508081016 | 44 | 88 | 0.0 | 0.9 | 0.00 | 0.08 | 0.00 | 93 | 1016.8 |
| 20260508080518 | 44 | 0 | 0.0 | 0.9 | 0.00 | 0.08 | 0.00 | 92 | 1016.8 |
| 20260508080032 | 45 | 0 | 0.0 | 0.9 | 0.00 | 0.08 | 0.00 | 92 | 1016.8 |
| 20260508075515 | 45 | 0 | 0.0 | 0.0 | 0.00 | 0.08 | 0.00 | 92 | 1016.9 |
| 20260508075013 | 45 | 0 | 0.0 | 0.0 | 0.00 | 0.08 | 0.00 | 92 | 1017.0 |
| 20260508074535 | 45 | 0 | 0.0 | 0.9 | 0.00 | 0.08 | 0.00 | 92 | 1017.1 |
| 20260508074015 | 45 | 0 | 0.0 | 0.9 | 0.00 | 0.08 | 0.00 | 92 | 1017.1 |
| 20260508073517 | 45 | 0 | 0.0 | 0.9 | 0.00 | 0.08 | 0.00 | 92 | 1017.1 |
| 20260508073038 | 46 | 97 | 0.0 | 0.9 | 0.00 | 0.08 | 0.00 | 92 | 1017.1 |
| 20260508072516 | 46 | 0 | 0.0 | 0.0 | 0.00 | 0.08 | 0.00 | 92 | 1017.2 |
| 20260508072019 | 46 | 0 | 0.0 | 0.9 | 0.00 | 0.08 | 0.00 | 92 | 1017.2 |
| 20260508071536 | 46 | 0 | 0.0 | 0.9 | 0.00 | 0.08 | 0.00 | 92 | 1017.0 |
| 20260508071015 | 46 | 0 | 0.0 | 0.9 | 0.00 | 0.08 | 0.00 | 92 | 1017.1 |
| 20260508070516 | 46 | 0 | 0.0 | 0.9 | 0.00 | 0.08 | 0.00 | 92 | 1017.1 |
| 20260508070035 | 46 | 0 | 0.0 | 0.9 | 0.00 | 0.08 | 0.00 | 92 | 1017.1 |
| 20260508065515 | 46 | 0 | 0.0 | 0.9 | 0.00 | 0.08 | 0.00 | 92 | 1017.1 |
| 20260508065018 | 46 | 0 | 0.0 | 0.9 | 0.00 | 0.08 | 0.00 | 91 | 1017.1 |
| 20260508064537 | 46 | 0 | 0.0 | 0.0 | 0.00 | 0.08 | 0.00 | 91 | 1017.1 |
| 20260508064015 | 47 | 0 | 0.0 | 0.0 | 0.00 | 0.08 | 0.00 | 91 | 1017.1 |
| 20260508063517 | 47 | 0 | 0.0 | 0.0 | 0.00 | 0.08 | 0.00 | 90 | 1017.1 |
| 20260508063034 | 47 | 0 | 0.0 | 0.0 | 0.00 | 0.08 | 0.00 | 90 | 1017.1 |
| 20260508062513 | 47 | 0 | 0.0 | 0.0 | 0.00 | 0.08 | 0.00 | 89 | 1017.1 |
| 20260508062016 | 48 | 0 | 0.0 | 0.0 | 0.00 | 0.08 | 0.00 | 88 | 1017.1 |
| 20260508061535 | 48 | 0 | 0.0 | 0.0 | 0.00 | 0.08 | 0.00 | 88 | 1017.0 |
| 20260508061015 | 48 | 0 | 0.0 | 0.9 | 0.00 | 0.08 | 0.00 | 88 | 1017.1 |
| 20260508060514 | 49 | 0 | 0.0 | 0.9 | 0.00 | 0.08 | 0.00 | 87 | 1017.1 |
| 20260508060046 | 49 | 0 | 0.0 | 0.0 | 0.00 | 0.08 | 0.00 | 86 | 1017.1 |
| 20260508055516 | 49 | 0 | 0.0 | 0.9 | 0.00 | 0.11 | 0.00 | 86 | 1017.2 |
| 20260508055016 | 50 | 0 | 0.0 | 0.9 | 0.00 | 0.11 | 0.00 | 86 | 1017.2 |
| 20260508054607 | 50 | 0 | 0.0 | 0.9 | 0.00 | 0.11 | 0.00 | 85 | 1017.1 |
| 20260508054016 | 51 | 0 | 0.0 | 0.9 | 0.00 | 0.11 | 0.00 | 84 | 1017.1 |
| 20260508053516 | 50 | 0 | 0.0 | 2.6 | 0.00 | 0.11 | 0.00 | 84 | 1017.3 |
| 20260508053046 | 50 | 350 | 0.9 | 2.6 | 0.00 | 0.11 | 0.00 | 86 | 1017.3 |
| 20260508052516 | 49 | 15 | 0.9 | 1.7 | 0.00 | 0.11 | 0.00 | 87 | 1017.3 |
| 20260508052013 | 49 | 21 | 0.0 | 0.9 | 0.00 | 0.11 | 0.00 | 88 | 1017.3 |
| 20260508051533 | 49 | 11 | 0.0 | 0.9 | 0.00 | 0.11 | 0.00 | 88 | 1017.3 |
| 20260508051016 | 49 | 6 | 0.0 | 0.9 | 0.00 | 0.11 | 0.00 | 89 | 1017.3 |
| 20260508050516 | 49 | 5 | 0.0 | 0.9 | 0.00 | 0.11 | 0.00 | 89 | 1017.2 |
| 20260508050032 | 49 | 28 | 0.9 | 0.9 | 0.00 | 0.11 | 0.00 | 89 | 1017.2 |
| 20260508045515 | 49 | 25 | 0.0 | 0.9 | 0.00 | 0.11 | 0.00 | 89 | 1017.1 |
| 20260508045015 | 50 | 24 | 0.0 | 0.9 | 0.00 | 0.11 | 0.00 | 87 | 1017.1 |
| 20260508044534 | 50 | 0 | 0.0 | 0.9 | 0.00 | 0.11 | 0.00 | 85 | 1017.1 |
| 20260508044015 | 51 | 0 | 0.0 | 1.7 | 0.00 | 0.11 | 0.00 | 84 | 1017.1 |
| 20260508043515 | 51 | 4 | 0.0 | 1.7 | 0.00 | 0.11 | 0.00 | 83 | 1017.0 |
| 20260508043036 | 51 | 359 | 0.9 | 2.6 | 0.00 | 0.11 | 0.00 | 84 | 1016.8 |
| 20260508042517 | 51 | 27 | 0.9 | 2.6 | 0.00 | 0.11 | 0.00 | 85 | 1016.8 |
| 20260508042015 | 50 | 19 | 1.7 | 2.6 | 0.00 | 0.11 | 0.00 | 86 | 1016.8 |
| 20260508041532 | 50 | 25 | 1.7 | 2.6 | 0.00 | 0.11 | 0.00 | 87 | 1016.8 |
| 20260508041017 | 49 | 10 | 0.9 | 2.6 | 0.00 | 0.11 | 0.00 | 90 | 1016.8 |
| 20260508040517 | 49 | 27 | 0.9 | 1.7 | 0.00 | 0.11 | 0.00 | 91 | 1016.6 |
| 20260508040035 | 49 | 27 | 0.9 | 1.7 | 0.00 | 0.11 | 0.00 | 91 | 1016.6 |
| 20260508035516 | 50 | 25 | 0.9 | 1.7 | 0.00 | 0.12 | 0.11 | 90 | 1016.5 |
| 20260508035016 | 50 | 25 | 0.0 | 2.6 | 0.00 | 0.12 | 0.11 | 91 | 1016.5 |
| 20260508034538 | 50 | 15 | 0.9 | 2.6 | 0.00 | 0.12 | 0.11 | 93 | 1016.5 |
| 20260508034018 | 49 | 11 | 1.7 | 1.7 | 0.00 | 0.12 | 0.11 | 94 | 1016.5 |
| 20260508033515 | 49 | 19 | 1.7 | 1.7 | 0.00 | 0.12 | 0.11 | 95 | 1016.4 |
| 20260508033036 | 49 | 24 | 0.9 | 1.7 | 0.00 | 0.12 | 0.11 | 95 | 1016.5 |
| 20260508032516 | 49 | 23 | 0.9 | 0.9 | 0.00 | 0.12 | 0.11 | 95 | 1016.5 |
| 20260508032015 | 49 | 0 | 0.0 | 0.9 | 0.00 | 0.12 | 0.11 | 95 | 1016.5 |
| 20260508031535 | 50 | 23 | 0.0 | 0.9 | 0.00 | 0.12 | 0.11 | 95 | 1016.3 |
| 20260508031015 | 50 | 26 | 0.0 | 0.9 | 0.00 | 0.12 | 0.11 | 95 | 1016.4 |
| 20260508030513 | 50 | 26 | 0.0 | 0.9 | 0.00 | 0.12 | 0.11 | 95 | 1016.4 |
| 20260508030039 | 51 | 25 | 0.0 | 0.9 | 0.00 | 0.12 | 0.11 | 95 | 1016.5 |
| 20260508025515 | 51 | 24 | 0.0 | 0.9 | 0.00 | 0.14 | 0.11 | 95 | 1016.5 |
| 20260508025015 | 52 | 0 | 0.0 | 0.9 | 0.00 | 0.14 | 0.11 | 95 | 1016.4 |